Погода в Казвине

Иран     36°17′08″N   50°00′34″E
темп.,
°C
ветер,
м/с
пор.,
м/с
влажн.,
%
обл.,
%
осадки,
мм/ч
давл.,
гПа
погр.,
м
25 февраля, чт
чт2500:30−2с685532 0.0 1033408
03:30−3с585829 0.0 1032391
06:30−2с475985 0.0 1033315
09:300с344993 0.0 1033466
12:30+2ссв2344100 0.0 10321184
15:30+2зюз1165100 0.1 1030652
18:30+1ссз3457100 0.1 1031427
21:300ссв345898 0.1 1032294
26 февраля, пт
пт2600:300ссв236085 0.0 1031248
03:30−1с226244 0.0 1030174
06:30−1ссз11630 0.0 1030135
09:30+2ю11540 0.0 1029493
12:30+4ю22360 0.0 10261031
15:30+6ю21300 0.0 10241214
18:30+6ююз22340 0.0 1025646
21:30+4ссз11470 0.0 1025213
27 февраля, сб
сб2700:30+3ссв12520 0.0 102575
03:30+3всв11480 0.0 102422
06:30+2вюв12480 0.0 102430
09:30+5юв34390 0.0 1023676
12:30+8юв45320 0.0 10201165
15:30+9юв55290 0.0 10171418
18:30+8вюв46320 0.0 1017895
21:30+6вюв47350 0.0 1018592
28 февраля, вс
вс2800:30+5вюв38360 0.0 1017450
03:30+4вюв37370 0.0 1016287
06:30+4вюв26390 0.0 1016193
09:30+7юв34310 0.0 1015465
12:30+10ююв34280 0.0 1012978
15:30+12ююв35250 0.0 10111941
18:30+11вюв45307 0.0 1013666
21:30+9вюв23333 0.0 101478
1 марта, пн
пн100:30+7юв24370 0.0 101690
03:30+6юв11400 0.0 101622
06:30+5всв01420 0.0 101822
09:30+9зсз12310 0.0 1019355
12:30+11юз33270 0.0 10181497
15:30+13ю24240 0.0 10172145
18:30+10ссз34420 0.0 1018195
21:30+6с56650 0.0 1019207